Overview Statistics Trail Chart Weather Telemetry Raw packets
 

This is the latest recevied weather packets stored in our database for station/object K0QED. If no packets are shown the sender has not sent any weather packets the latest 10 day(s).

<< 6 7 8 9 10 11 12 >>
Time Temp. Humidity Pressure Rain* Wind** Luminosity Snow
1788581647 18.33° C 64% 1025.4 hPa 0 mm - 0 W/m² -
1788581347 18.33° C 63% 1025.1 hPa 0 mm - 0 W/m² -
1788581041 18.33° C 64% 1025.5 hPa 0 mm - 0 W/m² -
1788580740 18.33° C 63% 1025.5 hPa 0 mm - 0 W/m² -
1788580436 18.33° C 62% 1025.6 hPa 0 mm - 0 W/m² -
1788580132 18.89° C 62% 1025.4 hPa 0 mm - 0 W/m² -
1788579828 18.89° C 61% 1025.4 hPa 0 mm - 0 W/m² -
1788579526 18.89° C 60% 1025.4 hPa 0 mm - 0 W/m² -
1788579222 18.89° C 61% 1025.5 hPa 0 mm - 0 W/m² -
1788578921 18.89° C 60% 1025.9 hPa 0 mm - 0 W/m² -
1788578616 18.89° C 59% 1025.4 hPa 0 mm - 0 W/m² -
1788578311 18.89° C 59% 1025.2 hPa 0 mm - 0 W/m² -
1788578015 18.89° C 57% 1025.1 hPa 0 mm - 0 W/m² -
1788577702 18.33° C 58% 1025.2 hPa 0 mm - 0 W/m² -
1788577398 18.33° C 60% 1025.4 hPa 0 mm - 0 W/m² -
1788577097 18.33° C 60% 1025.4 hPa 0 mm - 0 W/m² -
1788576793 18.89° C 58% 1024.9 hPa 0 mm - 0 W/m² -
1788576489 18.33° C 58% 1025 hPa 0 mm - 0 W/m² -
1788576184 17.78° C 59% 1025 hPa 0 mm - 0 W/m² -
1788575879 17.78° C 60% 1024.6 hPa 0 mm - 0 W/m² -
1788575574 18.33° C 61% 1024.7 hPa 0 mm - 0 W/m² -
1788575273 18.89° C 60% 1024.4 hPa 0 mm - 0 W/m² -
1788574968 19.44° C 58% 1024.5 hPa 0 mm - 0 W/m² -
1788574663 19.44° C 55% 1024.4 hPa 0 mm - 0 W/m² -
1788574358 19.44° C 55% 1024.5 hPa 0 mm - 0 W/m² -

* Rain latest hour (hover to see other rain measurements)
** Current wind speed in m/s (hover to see current wind gust speed)